Simultaneous Nadir Overpasses (SNOs) Predictions

Prediction of SNOs between GOES-15 and NPP Satellite Orbit:

Table of predicted SNOs for the next 14.0 days since TLE Epoch: 5/12/2017
Index Date Time (GOES-15) GOES-15 Lat,Lon NPP Lat,Lon Distance(km) Time Diff (sec)
1 05/13/2017 10:20:41 0.06,-135.15 -0.26,-133.63 172.93 80
2 05/14/2017 22:39:57 -0.05,-135.16 -0.92,-138.93 430.67 80
3 05/15/2017 22:23:52 -0.06,-135.12 0.09,-134.40 82.43 80
4 05/18/2017 10:24:15 0.05,-134.98 0.11,-135.13 17.67 80
5 05/19/2017 10:08:11 0.06,-134.94 -0.91,-130.60 494.95 80
6 05/20/2017 22:27:27 -0.05,-134.94 -0.27,-135.90 110.10 80
7 05/21/2017 22:11:23 -0.06,-134.90 0.75,-131.37 402.14 80
8 05/23/2017 10:30:30 0.04,-134.78 0.47,-136.63 211.79 80
9 05/24/2017 10:14:25 0.05,-134.73 -0.55,-132.10 299.75 80
10 05/25/2017 22:33:42 -0.03,-134.71 -0.63,-137.41 307.31 80




NCC Satellite Simultaneous Nadir Overpasses (SNOs) Prediction Service
